AirNav   Jet Aviation Boston
 
 861 users online  

IA8 Dyersville Area Airport
Dyersville, Iowa, USA

GOING TO DYERSVILLE?


FAA INFORMATION EFFECTIVE 21 JUNE 2018

Location

FAA Identifier: IA8
Lat/Long: 42-29-45.9790N / 091-10-47.4920W
42-29.766317N / 091-10.791533W
42.4961053 / -91.1798589
(estimated)
Elevation: 980 ft. / 299 m (estimated)
Variation: 01E (1995)
From city: 2 miles NW of DYERSVILLE, IA
Time zone: UTC -5 (UTC -6 during Standard Time)
Zip code: 52040

Airport Operations

Airport use: Open to the public
Activation date: 12/1999
Control tower: no
ARTCC: CHICAGO CENTER
FSS: FORT DODGE FLIGHT SERVICE STATION
NOTAMs facility: FOD (NOTAM-D service available)
Attendance: UNATNDD
Wind indicator: yes
Segmented circle: no
Lights: ACTVT LIRL RY 13/31 - CTAF.

Airport Communications

CTAF: 122.9
WX AWOS-3 at MXO (17 nm S): 119.275 (319-465-6155)

Nearby radio navigation aids

VOR radial/distance  VOR name  Freq  Var
DBQr281/21.6DUBUQUE VORTAC115.8004E

 
NDB name  Hdg/Dist  Freq  Var  ID
WAPSIE086/34.220600EIIB .. .. -...

Airport Services

Runway Information

Runway 11/29

Dimensions: 2700 x 120 ft. / 823 x 37 m
Surface: turf, in fair condition
Runway edge lights: non-standard
CONES WITH LIGHTS.
Runway edge markings: NSTD MKGS RY 11&29; RY EDGES MKD WITH YELLOW CONES, DSPLCD THLDS MKD WITH 3 YELLOW CONES EACH SIDE.
Gradient: W
RUNWAY 11  RUNWAY 29
Elevation: 975.2 ft.963.8 ft.
Gradient: 0.4% UP
Traffic pattern: leftright
Displaced threshold: 200 ft.
APCH 35:1 FM DSPLCD THLD.
175 ft.
APCH 20:1 FM DSPLCD THLD.
Markings: NSTD
Obstructions: 6 ft. gnd, 15 ft. from runway, 60 ft. left of centerline, 2:1 slope to clear15 ft. road, 125 ft. from runway, 8:1 slope to clear

Airport Ownership and Management from official FAA records

Ownership: Privately-owned
Owner: DYERSVILLE AREA AIRPORT
104 5TH ST SE
DYERSVILLE, IA 52040
Phone 563-875-8590
ALTERNATE PHONE NUMBER 563-875-7121.
Manager: DAVID KRAMER
104 5TH ST SE
DYERSVILLE, IA 52040
Phone 563-875-8590

Airport Operational Statistics

Aircraft based on the field: 4
Single engine airplanes: 3
Ultralights: 1
    

Additional Remarks

REMOTE CTLD ACFT INVOF ARPT.

Instrument Procedures

There are no published instrument procedures at IA8.

Some nearby airports with instrument procedures:

KMXO - Monticello Regional Airport (17 nm S)
KDBQ - Dubuque Regional Airport (22 nm E)
KPDC - Prairie du Chien Municipal Airport (31 nm N)
KOQW - Maquoketa Municipal Airport (33 nm SE)
KIIB - Independence Municipal Airport (34 nm W)
 
Loc | Ops | Rwys | IFR | FBO | Links
Com | Nav | Svcs | Stats | Notes

AirNav Hotels Sweepstakes
 
Area around IA8 (Dyersville Area Airport)
 
Road maps at: MapQuest Bing Google
 
Aerial photo
WARNING: Photo may not be current or correct
Aerial photo of IA8 (Dyersville Area Airport)
Do you have a better or more recent aerial photo of Dyersville Area Airport that you would like to share? If so, please send us your photo.

 
Sectional chart

 
Airport distance calculator
Flying to Dyersville Area Airport? Find the distance to fly.

From to IA8

Sunrise and sunset
Times for 21-Jun-2018
 Local
(UTC-5)
 Zulu
(UTC)
Morning civil twilight04:5309:53
Sunrise05:2810:28
Sunset20:4401:44
Evening civil twilight21:1902:19

Current date and time
Zulu (UTC)  22-Jun-2018 03:22:10
Local (UTC-5)  21-Jun-2018 22:22:10
 
METAR
KMXO 
17nm S 
220255Z AUTO 05007KT 10SM OVC019 17/15 A2981 RMK AO2
KDBQ 
22nm E 
220253Z AUTO 03007KT 9SM FEW020 OVC026 16/14 A2983 RMK AO2 RAE0157 SLP099 P0000 60000 T01610144 53009
KPDC 
31nm N 
220255Z AUTO 00000KT 10SM OVC049 17/12 A2986 RMK AO2 T01670121
TAF
KDBQ 
22nm E 
212039Z 2121/2218 05008KT 1SM RA BR OVC004 TEMPO 2121/2124 2SM -RA BR OVC006 FM220000 05011KT 3SM -SHRA BR OVC015 FM221000 04011KT 5SM -SHRA BR OVC025 FM221200 03011KT P6SM VCSH OVC035 FM221400 03011KT P6SM OVC030
NOTAMs
Click for the latest NOTAMs
NOTAMs are issued by the DoD/FAA and will open in a separate window not controlled by AirNav.

 

 
 

Would you like to see your business listed on this page?

 If your business provides an interesting product or service to pilots, flight crews, aircraft, or users of the Dyersville Area Airport, you should consider listing it here.  To start the listing process, click on the button below
 
Add a business
 

Other Pages about Dyersville Area Airport

www.dyersvilleairport.com
 
Update a link
 
Copyright © AirNav, LLC. All rights reserved. Privacy Policy  Contact